Location: Philomena
(55.1756°N, 111.6233°W)
Time: 09:27:00
(UTC+00:00)

UNISAT 6 - Pass Details

Date: 06 December 2023
Orbit: 596 x 671 km, 97.7° (Epoch: 22 February)

Event Time Altitude Azimuth Distance (km) Brightness Sun altitude
Exits shadow 01:12:38 - 11° (N) 2,372 ? -17.6°
Reaches altitude 10° 01:13:22 10° 9° (N) 2,068 ? -17.7°
Maximum altitude 01:17:49 60° 290° (WNW) 734 ? -18.3°
Drops below altitude 10° 01:22:07 10° 211° (SSW) 2,005 ? -18.9°
Sets 01:24:17 0° 208° (SSW) 2,895 ? -19.2°
